Flag for U.S.A. Weather past 2 weeks in Albuquerque, New Mexico, U.S.A.

Now
27 °F

Partly sunny.


Feels Like: 17 °F
Forecast: 27 / 45 °F
Wind: 12 mph from North

Location: Albuquerque International Airport

Current Time: Feb 28, 2015 at 11:20:44 AM

Latest Report: Feb 28, 2015 at 10:52 AM


Visibility: 10 mi

Pressure: 30.04 "Hg

Humidity: 75%

Dew point: 20 °F

Location of AlbuquerqueLocation

Historic Weather in Albuquerque — Graph

°F

Albuquerque temperature yesterday

Maximum temperature yesterday: 27 °F (at 11:52 AM)
Minimum temperature yesterday: 21 °F (at 10:54 PM)
Average temperature yesterday: 24 °F

Past Weeks' High & Low Weather Summary

 TemperatureHumidityPressure
High68 °F (Feb 15, 2:52 PM)92% (Feb 26, 11:52 PM)30.37 "Hg (Feb 26, 11:52 PM)
Low16 °F (Feb 23, 5:02 AM)9% (Feb 17, 4:52 PM)29.63 "Hg (Feb 21, 2:52 PM)
Average41 °F45%30.02 "Hg
* Reported Feb 13 9:52 AM — Feb 28 9:52 AM, Albuquerque, Weather by CustomWeather, © 2015

Note: Actual official high and low records may vary slightly from our data, if they occured in-between our weather recording intervals... More about our weather records

Advertising

Albuquerque weather history for previous 24 hours

 ConditionsComfort  
Time TempWeatherWind HumidityBarometerVisibility
9:52 AM
Sat, Feb 28
25 °FBroken clouds.7 mph81%30.04 "Hg10 mi
8:52 AM22 °FLight snow. Mostly cloudy.10 mph85%30.04 "Hg7 mi
7:52 AM21 °FLight snow. Ice fog.9 mph88%30.02 "Hg6 mi
6:52 AM20 °FLight snow. Ice fog.7 mph92%30.01 "Hg2 mi
5:52 AM20 °FLight snow. Ice fog.7 mph92%30.01 "Hg1 mi
4:52 AM20 °FSnow. Ice fog.6 mph92%29.99 "Hg1 mi
3:52 AM19 °FLight snow. Ice fog.12 mph88%29.98 "Hg1 mi
2:52 AM20 °FLight snow. Ice fog.8 mph92%29.96 "Hg1 mi
1:52 AM20 °FLight snow. Ice fog.9 mph92%29.98 "Hg1 mi
12:52 AM20 °FLight snow. Ice fog.9 mph92%29.99 "Hg2 mi
11:52 PM
Fri, Feb 27
21 °FLight snow. Ice fog.7 mph88%29.98 "Hg3 mi
10:54 PM21 °FLight snow. Ice fog.9 mph92%29.91 "Hg1 mi
9:52 PM22 °FLight snow. Ice fog.9 mph92%30.01 "Hg1 mi
8:52 PM23 °FLight snow. Ice fog.8 mph92%29.99 "Hg1 mi
7:52 PM24 °FLight snow. Ice fog.7 mph91%29.98 "Hg1 mi
6:52 PM24 °FLight snow. Ice fog.9 mph91%29.97 "Hg2 mi
5:52 PM24 °FSnow. Ice fog.9 mph91%29.96 "Hg1 mi
4:52 PM25 °FLight snow. Ice fog.9 mph92%29.97 "Hg1 mi
4:00 PM26 °FLight snow. Ice fog.9 mph88%29.89 "Hg1 mi
2:52 PM27 °FLight snow. Mostly cloudy.8 mph78%29.97 "Hg7 mi
1:52 PM27 °FLight snow. Mostly cloudy.6 mph81%29.98 "Hg8 mi
12:52 PM26 °FLight snow. More clouds than sun.7 mph81%30.03 "Hg8 mi
11:52 AM27 °FMostly cloudy.10 mph75%30.07 "Hg10 mi
Weather by CustomWeather, © 2015

See weather overviewHow to use our weather pages